Location: Kerentrech
(47.7567°N, 3.3595°W)
Time: 08:37:12
(UTC+00:00)

Cosmos 1140 Rocket - Pass Details

Date: 17 February 2020
Orbit: 745 x 767 km, 74.1° (Epoch: 27 March)

Event Time Altitude Azimuth Distance (km) Brightness Sun altitude
Rises 06:33:21 0° 213° (SSW) 3,219 6.5 -8.0°
Reaches altitude 10° 06:35:45 10° 217° (SW) 2,299 5.7 -7.6°
Maximum altitude 06:40:54 58° 296° (WNW) 896 3.6 -6.7°
Drops below altitude 10° 06:46:05 10° 16° (NNE) 2,317 6.1 -5.9°
Sets 06:48:31 0° 20° (NNE) 3,246 6.9 -5.5°
